カタログに戻る

STARLINK-35897

運用中通信VLEO
NORAD 66501·PAYLOAD·🇺🇸 United States

打ち上げ Nov 15, 2025 から Cape Canaveral Space Force Station

Loading…

次のパス (今後24時間)

TLE

最新Source: CelesTrak SupGP

元期: Sep 14, 2026, 22:34 UTC

1 66501C 25263S   26257.94076389 -.00013681  00000+0 -49550-3 0  2577
2 66501  43.0040   1.9481 0001630 272.6276  25.9345 15.27586478    18

AllMySatでSTARLINK-35897をリアルタイム追跡

Download on the App Store